Wetbulb
69.03 68.54 68.02 68.85 69.37 69.43 69.55 70.23 71.46 70.95 71.60 71.75 72.46 72.82 73.30 71.75 71.72 72.73 72.17 72.43 72.23 71.36
69.65 69.22 68.59 68.59 69.66 69.87 70.63 70.81 71.36 71.50 71.80 72.20 72.34 72.61 73.04 72.41 71.68 72.24 71.78 71.81 72.58 72.55
69.29 69.91 70.18 69.72 69.04 70.22 70.66 71.08 71.52 71.16 71.83 72.49 72.56 72.89 73.02 72.45 72.67 72.09 72.08 71.99 72.16 72.27
69.36 69.21 69.61 69.85 70.03 70.01 70.57 70.73 70.78 71.44 71.36 71.43 71.99 73.38 72.58 72.51 72.48 71.89 72.28 71.93 72.03 72.28
70.29 70.35 69.17 69.23 69.97 70.29 70.19 71.02 70.58 71.53 72.18 71.62 71.71 72.83 72.94 71.82 71.50 71.55 71.62 71.76 71.10 71.59
68.79 69.66 70.04 69.43 69.69 70.25 70.53 70.58 70.52 71.18 71.15 71.75 72.06 72.35 72.50 72.43 71.08 71.91 72.06 72.11 71.39 71.26
69.31 69.88 70.06 70.48 69.76 69.68 70.06 70.48 70.76 70.62 70.84 71.38 71.63 71.79 72.07 71.84 71.42 71.34 71.81 71.96 71.54 71.73
69.58 71.11 70.80 70.35 70.42 69.86 69.30 69.72 70.51 70.61 70.49 70.62 70.15 69.76 69.42 70.19 71.28 71.30 71.18 71.48 71.64 71.78
66.94 68.51 70.74 70.58 70.59 70.03 69.08 69.19 69.89 69.70 69.91 69.70 69.85 66.85 66.25 67.94 68.18 69.32 70.32 70.31 71.63 72.14
68.72 67.68 68.83 70.18 69.93 69.21 68.47 68.15 68.09 69.14 69.37 69.27 69.50 64.42 65.02 66.85 68.75 68.97 69.57 70.47 71.31 71.51
68.24 68.31 68.76 68.79 68.97 68.96 68.81 68.22 67.41 67.57 67.97 68.69 69.27 64.82 63.52 65.11 68.72 69.15 69.90 70.77 71.34 71.48
67.55 66.53 66.84 67.45 67.20 67.72 67.54 67.29 67.09 66.76 66.60 66.56 67.32 62.09 61.10 63.98 67.79 68.63 69.22 70.31 71.08 71.06
66.10 66.98 66.51 66.55 66.52 65.99 66.31 66.60 66.91 66.35 66.51 64.48 65.61 60.76 59.29 61.63 66.93 67.00 68.24 68.38 68.40 63.44
65.08 64.52 65.34 65.72 65.97 65.34 65.66 64.35 63.67 62.95 62.06 61.82 60.86 61.06 57.86 58.41 65.50 67.09 66.82 66.48 66.88 66.54
MSLP
1015.94 1016.29 1016.54 1016.68 1016.94 1017.11 1017.30 1017.28 1017.21 1017.56 1017.95 1018.27 1018.47 1018.55 1018.71 1019.08 1019.24 1019.50 1019.74 1019.78 1019.83 1020.04
1015.26 1015.77 1016.01 1016.30 1016.62 1016.86 1016.84 1016.88 1016.93 1017.20 1017.64 1017.73 1018.05 1018.33 1018.55 1018.80 1018.92 1019.07 1019.22 1019.34 1019.43 1019.67
1014.62 1015.03 1015.45 1015.87 1016.34 1016.52 1016.57 1016.61 1016.75 1016.99 1017.23 1017.45 1017.57 1017.71 1018.15 1018.26 1018.40 1018.64 1018.75 1019.01 1019.25 1019.30
1014.05 1014.50 1014.90 1015.37 1015.68 1016.12 1016.35 1016.25 1016.52 1016.59 1016.73 1016.93 1017.18 1017.41 1017.68 1017.89 1018.04 1018.35 1018.50 1018.68 1018.95 1018.95
1013.28 1013.96 1014.37 1014.72 1015.02 1015.23 1015.61 1015.70 1015.95 1016.13 1016.34 1016.59 1016.61 1016.71 1017.20 1017.52 1017.66 1017.93 1018.09 1018.18 1018.45 1018.50
1012.76 1013.40 1013.63 1013.98 1014.22 1014.57 1015.03 1015.26 1015.62 1015.87 1015.91 1016.03 1016.23 1016.44 1016.49 1016.66 1017.03 1017.23 1017.41 1017.57 1017.79 1017.82
1012.29 1012.56 1012.84 1013.29 1013.63 1013.97 1014.28 1014.62 1014.85 1015.12 1015.40 1015.45 1015.65 1015.97 1016.02 1016.13 1016.37 1016.73 1016.85 1017.03 1017.32 1017.42
1011.91 1011.99 1012.34 1012.70 1012.89 1013.21 1013.23 1013.63 1014.19 1014.38 1014.60 1014.79 1015.11 1015.35 1015.66 1015.65 1015.85 1016.18 1016.43 1016.49 1016.75 1016.88
1011.52 1011.69 1011.78 1012.08 1012.11 1012.34 1012.59 1013.13 1013.56 1014.15 1014.24 1014.33 1014.29 1014.41 1014.79 1015.00 1015.28 1015.61 1016.00 1016.13 1016.18 1016.34
1011.05 1011.14 1011.33 1011.53 1011.72 1011.97 1012.44 1012.79 1012.75 1013.58 1014.23 1014.09 1013.99 1014.03 1014.29 1014.51 1014.67 1014.92 1015.27 1015.53 1015.68 1015.81
1010.65 1010.87 1010.92 1011.09 1011.44 1011.76 1012.09 1012.52 1012.93 1013.29 1013.78 1013.88 1013.91 1013.93 1014.19 1014.48 1014.72 1014.72 1014.65 1014.77 1014.94 1015.09
1010.72 1010.86 1010.98 1011.05 1011.40 1011.76 1012.18 1012.51 1012.77 1013.20 1013.56 1013.76 1013.56 1013.66 1013.81 1014.28 1014.21 1014.20 1014.27 1014.18 1014.13 1014.40
1011.04 1011.07 1011.18 1011.29 1011.45 1011.68 1012.03 1012.28 1012.61 1012.94 1013.20 1013.35 1013.22 1012.97 1013.06 1013.48 1013.63 1013.75 1013.83 1013.95 1013.82 1013.88
1011.23 1011.30 1011.36 1011.50 1011.66 1011.80 1012.02 1012.32 1012.58 1012.73 1012.92 1013.04 1013.19 1013.25 1013.10 1013.14 1013.11 1013.19 1013.42 1013.55 1013.58 1014.06
Wind_Speed
9 6 5 5 4 4 4 5 5 6 6 7 6 5 4 3 3 4 4 4 4 2
10 8 8 7 5 5 5 5 5 6 6 7 6 7 6 4 4 4 3 4 4 3
11 9 8 6 8 8 8 7 5 6 7 6 7 7 7 5 4 4 3 3 4 4
10 9 9 8 8 8 6 6 7 7 8 8 8 7 7 6 5 6 4 4 5 6
8 7 9 9 9 9 9 6 7 6 7 7 8 7 8 9 8 8 7 7 6 6
9 8 10 10 9 9 8 9 6 6 7 7 7 7 8 9 8 8 8 7 7 8
11 12 11 6 6 6 6 8 9 9 9 8 7 7 8 6 7 7 7 7 7 7
9 10 8 9 10 10 9 8 8 9 9 9 7 7 7 6 6 7 7 7 7 8
8 9 10 11 12 8 6 6 6 8 9 10 8 11 13 10 7 7 8 8 8 8
7 9 10 8 9 10 10 7 8 7 8 9 9 9 11 13 7 8 9 10 9 7
1 4 5 7 9 10 8 9 9 8 6 5 5 7 8 10 8 8 9 10 10 10
2 4 4 4 5 3 4 3 3 3 4 5 6 9 11 8 5 8 11 10 9 9
4 3 3 3 4 2 2 3 3 4 4 7 7 7 8 8 5 6 7 6 5 8
5 5 4 4 2 3 4 3 2 3 3 4 5 1 8 9 4 4 3 5 3 3
Wind_Direction
204 200 195 195 198 203 198 218 198 207 199 201 212 218 212 210 211 201 224 240 223 242
207 199 198 196 193 211 210 217 214 189 206 216 203 205 205 202 205 194 207 235 241 216
207 200 202 184 196 200 218 224 211 202 200 214 216 208 200 210 213 201 207 221 235 242
207 194 198 200 202 205 219 199 217 212 210 211 219 208 198 216 213 211 215 213 227 242
202 190 200 205 201 196 207 209 214 213 215 220 221 210 203 217 210 210 209 221 215 236
215 205 212 204 200 197 204 213 214 214 216 219 221 226 220 217 211 210 213 216 210 231
214 210 208 175 168 179 191 217 214 210 219 220 220 225 225 205 218 225 222 217 222 232
213 204 189 172 173 180 183 203 231 225 217 211 201 216 214 209 218 221 230 223 224 234
198 208 200 195 204 202 218 194 193 223 227 223 218 204 200 195 204 221 235 244 240 232
197 205 209 202 204 202 204 188 195 212 230 239 238 208 204 205 206 212 228 234 236 241
176 210 196 195 203 211 211 210 196 210 198 212 221 220 220 220 238 245 236 230 226 228
118 154 163 170 167 160 172 183 194 190 207 227 248 221 230 229 227 238 245 238 228 223
66 100 135 149 150 127 159 176 176 203 222 243 248 230 202 196 206 232 243 236 224 211
79 89 101 115 116 134 123 112 101 95 52 33 17 296 196 197 203 209 212 228 213 229